| time (UTC) | temp F | wind direction | speed MPH | gust MPH | rain 1hr in | rain 24hr in | rain mn in | humidity % | barometer mb |
| 20260902070054 | 73 | 115 | 0.0 | 0.0 | 0.00 | 0.00 | 0.00 | 94 | 1011.9 |
| 20260902064553 | 73 | 114 | 0.0 | 0.0 | 0.00 | 0.00 | 0.00 | 94 | 1011.8 |
| 20260902063105 | 73 | 114 | 0.0 | 0.0 | 0.00 | 0.00 | 0.00 | 94 | 1011.9 |
| 20260902061548 | 73 | 115 | 0.0 | 0.0 | 0.00 | 0.00 | 0.00 | 94 | 1012.2 |
| 20260902060054 | 73 | 114 | 0.0 | 0.0 | 0.00 | 0.00 | 0.00 | 94 | 1012.3 |
| 20260902054544 | 74 | 114 | 0.0 | 0.0 | 0.00 | 0.00 | 0.00 | 93 | 1012.5 |
| 20260902053044 | 74 | 114 | 0.0 | 0.0 | 0.00 | 0.00 | 0.00 | 93 | 1012.6 |
| 20260902051542 | 74 | 115 | 0.0 | 0.0 | 0.00 | 0.00 | 0.00 | 93 | 1012.6 |
| 20260902050042 | 74 | 114 | 0.0 | 0.0 | 0.00 | 0.00 | 0.00 | 93 | 1012.6 |
| 20260902044542 | 74 | 115 | 0.0 | 0.0 | 0.00 | 0.00 | 0.00 | 93 | 1012.5 |
| 20260902043048 | 74 | 114 | 0.0 | 0.0 | 0.00 | 0.00 | 0.00 | 93 | 1012.6 |
| 20260902041542 | 74 | 114 | 0.0 | 0.0 | 0.00 | 0.00 | 0.00 | 93 | 1012.5 |
| 20260902040036 | 74 | 114 | 0.0 | 0.0 | 0.00 | 0.00 | 0.00 | 92 | 1012.5 |
| 20260902034536 | 75 | 114 | 0.0 | 0.0 | 0.00 | 0.00 | 0.00 | 91 | 1012.3 |
| 20260902033039 | 75 | 114 | 0.0 | 0.0 | 0.00 | 0.00 | 0.00 | 91 | 1012.3 |
| 20260902031534 | 75 | 114 | 0.0 | 0.0 | 0.00 | 0.00 | 0.00 | 90 | 1012.2 |
| 20260902030039 | 76 | 114 | 0.0 | 0.0 | 0.00 | 0.00 | 0.00 | 90 | 1012.2 |
| 20260902024533 | 76 | 114 | 0.0 | 0.0 | 0.00 | 0.00 | 0.00 | 89 | 1012.0 |
| 20260902023042 | 76 | 114 | 0.0 | 0.0 | 0.00 | 0.00 | 0.00 | 88 | 1012.0 |
| 20260902021542 | 77 | 114 | 0.0 | 0.0 | 0.00 | 0.00 | 0.00 | 86 | 1012.0 |
| 20260902020035 | 78 | 115 | 0.0 | 0.0 | 0.00 | 0.00 | 0.00 | 86 | 1012.1 |
| 20260902014532 | 78 | 114 | 0.0 | 0.0 | 0.00 | 0.00 | 0.00 | 85 | 1012.1 |
| 20260902013032 | 79 | 114 | 0.0 | 0.0 | 0.00 | 0.00 | 0.00 | 84 | 1012.2 |
| 20260902011530 | 79 | 114 | 0.0 | 0.0 | 0.00 | 0.00 | 0.00 | 83 | 1012.2 |
| 20260902010030 | 80 | 114 | 0.0 | 0.0 | 0.00 | 0.00 | 0.00 | 81 | 1011.9 |
| 20260902004530 | 81 | 114 | 0.0 | 0.0 | 0.00 | 0.00 | 0.00 | 80 | 1011.8 |
| 20260902003030 | 81 | 114 | 0.0 | 1.0 | 0.00 | 0.00 | 0.00 | 79 | 1011.7 |
| 20260902001529 | 82 | 360 | 0.0 | 1.0 | 0.00 | 0.00 | 0.00 | 78 | 1011.7 |
| 20260902000029 | 83 | 360 | 0.0 | 1.0 | 0.00 | 0.00 | 0.00 | 77 | 1011.6 |
| 20260901234528 | 84 | 27 | 0.0 | 3.0 | 0.00 | 0.00 | 0.00 | 77 | 1011.7 |
| 20260901233028 | 84 | 25 | 0.0 | 1.0 | 0.00 | 0.00 | 0.00 | 77 | 1011.5 |
| 20260901231527 | 85 | 155 | 0.0 | 3.0 | 0.00 | 0.00 | 0.00 | 78 | 1011.5 |
| 20260901230034 | 86 | 24 | 0.0 | 1.0 | 0.00 | 0.00 | 0.00 | 73 | 1011.6 |
| 20260901224528 | 87 | 63 | 0.0 | 1.0 | 0.00 | 0.01 | 0.00 | 71 | 1011.5 |
| 20260901223026 | 87 | 271 | 0.0 | 2.0 | 0.00 | 0.01 | 0.00 | 70 | 1011.4 |
| 20260901221532 | 87 | 92 | 0.0 | 1.0 | 0.00 | 0.01 | 0.00 | 72 | 1011.4 |
| 20260901220051 | 88 | 176 | 0.0 | 1.0 | 0.00 | 0.01 | 0.00 | 71 | 1011.3 |
| 20260901214524 | 88 | 134 | 0.0 | 1.0 | 0.00 | 0.01 | 0.00 | 70 | 1011.2 |
| 20260901213056 | 89 | 174 | 0.0 | 3.0 | 0.00 | 0.01 | 0.00 | 68 | 1011.2 |
| 20260901211522 | 90 | 44 | 0.0 | 2.0 | 0.00 | 0.01 | 0.00 | 66 | 1011.3 |
| 20260901210022 | 90 | 29 | 0.0 | 2.0 | 0.00 | 0.01 | 0.00 | 65 | 1011.3 |
| 20260901204526 | 89 | 115 | 1.0 | 5.0 | 0.00 | 0.01 | 0.00 | 67 | 1011.4 |
| 20260901203043 | 90 | 82 | 0.0 | 2.0 | 0.00 | 0.01 | 0.00 | 69 | 1011.3 |
| 20260901201519 | 89 | 98 | 0.0 | 4.0 | 0.00 | 0.01 | 0.00 | 70 | 1011.5 |
| 20260901200019 | 89 | 55 | 0.0 | 3.0 | 0.00 | 0.01 | 0.00 | 68 | 1011.5 |
| 20260901194519 | 90 | 58 | 0.0 | 2.0 | 0.00 | 0.01 | 0.00 | 66 | 1011.6 |
| 20260901193018 | 91 | 131 | 1.0 | 6.0 | 0.00 | 0.01 | 0.00 | 66 | 1011.7 |
| 20260901191517 | 92 | 127 | 0.0 | 3.0 | 0.00 | 0.01 | 0.00 | 64 | 1011.8 |
| 20260901190016 | 92 | 136 | 0.0 | 4.0 | 0.00 | 0.01 | 0.00 | 63 | 1011.7 |
| 20260901184525 | 92 | 52 | 0.0 | 3.0 | 0.00 | 0.01 | 0.00 | 64 | 1011.7 |
| 20260901183013 | 92 | 52 | 0.0 | 4.0 | 0.00 | 0.01 | 0.00 | 63 | 1011.6 |
| 20260901181511 | 92 | 106 | 0.0 | 2.0 | 0.00 | 0.01 | 0.00 | 62 | 1011.6 |
| 20260901180008 | 91 | 145 | 0.0 | 2.0 | 0.00 | 0.01 | 0.00 | 66 | 1011.5 |
| 20260901174504 | 90 | 16 | 0.0 | 3.0 | 0.00 | 0.01 | 0.00 | 66 | 1011.6 |
| 20260901173104 | 89 | 87 | 0.0 | 1.0 | 0.00 | 0.01 | 0.00 | 70 | 1011.7 |
| 20260901171558 | 88 | 323 | 0.0 | 3.0 | 0.00 | 0.01 | 0.00 | 70 | 1012.0 |
| 20260901170104 | 87 | 165 | 0.0 | 2.0 | 0.00 | 0.01 | 0.00 | 72 | 1012.3 |
| 20260901164550 | 86 | 106 | 0.0 | 2.0 | 0.00 | 0.03 | 0.00 | 72 | 1012.3 |
| 20260901163048 | 86 | 70 | 0.0 | 5.0 | 0.00 | 0.03 | 0.00 | 73 | 1012.7 |
| 20260901161544 | 85 | 29 | 0.0 | 4.0 | 0.00 | 0.03 | 0.00 | 75 | 1012.8 |
| 20260901160041 | 84 | 225 | 0.0 | 4.0 | 0.00 | 0.03 | 0.00 | 76 | 1012.9 |
| 20260901154539 | 83 | 310 | 0.0 | 2.0 | 0.00 | 0.03 | 0.00 | 78 | 1012.8 |
| 20260901153038 | 82 | 6 | 0.0 | 2.0 | 0.00 | 0.03 | 0.00 | 79 | 1012.9 |
| 20260901151534 | 82 | 205 | 0.0 | 1.0 | 0.00 | 0.03 | 0.00 | 79 | 1013.0 |
| 20260901150032 | 81 | 74 | 0.0 | 1.0 | 0.00 | 0.03 | 0.00 | 81 | 1013.1 |
| 20260901144529 | 81 | 122 | 0.0 | 1.0 | 0.00 | 0.03 | 0.00 | 83 | 1013.2 |
| 20260901143029 | 80 | 120 | 0.0 | 1.0 | 0.00 | 0.03 | 0.00 | 84 | 1013.3 |
| 20260901141523 | 78 | 144 | 0.0 | 1.0 | 0.00 | 0.03 | 0.00 | 88 | 1013.3 |
| 20260901140026 | 77 | 143 | 0.0 | 0.0 | 0.00 | 0.03 | 0.00 | 89 | 1013.3 |
| 20260901134522 | 77 | 143 | 0.0 | 1.0 | 0.00 | 0.03 | 0.00 | 90 | 1013.0 |
| 20260901133013 | 76 | 143 | 0.0 | 1.0 | 0.00 | 0.03 | 0.00 | 92 | 1013.0 |
| 20260901131511 | 74 | 131 | 0.0 | 1.0 | 0.00 | 0.03 | 0.00 | 96 | 1012.9 |
| 20260901130011 | 73 | 131 | 0.0 | 1.0 | 0.00 | 0.03 | 0.00 | 96 | 1013.0 |
| 20260901124505 | 73 | 131 | 0.0 | 0.0 | 0.00 | 0.03 | 0.00 | 97 | 1013.2 |
| 20260901123100 | 70 | 131 | 0.0 | 0.0 | 0.00 | 0.03 | 0.00 | 96 | 1013.2 |
| 20260901121559 | 69 | 130 | 0.0 | 0.0 | 0.00 | 0.03 | 0.00 | 96 | 1013.2 |
| 20260901120101 | 68 | 130 | 0.0 | 0.0 | 0.00 | 0.03 | 0.00 | 96 | 1013.0 |
| 20260901114557 | 68 | 130 | 0.0 | 0.0 | 0.00 | 0.03 | 0.00 | 96 | 1013.0 |
| 20260901113057 | 67 | 130 | 0.0 | 0.0 | 0.00 | 0.03 | 0.00 | 96 | 1012.8 |
| 20260901111554 | 68 | 129 | 0.0 | 0.0 | 0.00 | 0.03 | 0.00 | 96 | 1012.8 |
| 20260901110052 | 68 | 130 | 0.0 | 0.0 | 0.00 | 0.03 | 0.00 | 96 | 1012.6 |
| 20260901104554 | 68 | 129 | 0.0 | 0.0 | 0.00 | 0.03 | 0.00 | 96 | 1012.5 |
| 20260901103049 | 68 | 129 | 0.0 | 0.0 | 0.00 | 0.03 | 0.00 | 96 | 1012.5 |
| 20260901101547 | 68 | 130 | 0.0 | 0.0 | 0.00 | 0.03 | 0.00 | 96 | 1012.4 |
| 20260901100047 | 69 | 129 | 0.0 | 0.0 | 0.00 | 0.03 | 0.00 | 96 | 1012.4 |
| 20260901094550 | 69 | 130 | 0.0 | 0.0 | 0.00 | 0.03 | 0.00 | 96 | 1012.4 |
| 20260901093045 | 69 | 129 | 0.0 | 0.0 | 0.00 | 0.03 | 0.00 | 96 | 1012.4 |
| 20260901091546 | 69 | 130 | 0.0 | 0.0 | 0.00 | 0.03 | 0.00 | 96 | 1012.2 |
| 20260901090043 | 69 | 129 | 0.0 | 0.0 | 0.00 | 0.03 | 0.00 | 96 | 1012.1 |
| 20260901084545 | 69 | 129 | 0.0 | 0.0 | 0.00 | 0.03 | 0.00 | 96 | 1012.1 |
| 20260901083042 | 69 | 130 | 0.0 | 0.0 | 0.00 | 0.03 | 0.00 | 96 | 1012.0 |
| 20260901081540 | 69 | 129 | 0.0 | 0.0 | 0.00 | 0.03 | 0.00 | 96 | 1012.1 |
| 20260901080040 | 69 | 130 | 0.0 | 0.0 | 0.00 | 0.03 | 0.00 | 96 | 1012.0 |
| 20260901074539 | 69 | 129 | 0.0 | 0.0 | 0.00 | 0.03 | 0.00 | 96 | 1012.0 |
| 20260901073038 | 69 | 130 | 0.0 | 0.0 | 0.00 | 0.03 | 0.00 | 96 | 1012.0 |
| 20260901071536 | 70 | 129 | 0.0 | 0.0 | 0.00 | 0.03 | 0.00 | 95 | 1012.1 |